Weather in Gnezdilovo

Russia / Oryol Oblast     53°14′32″N   35°33′06″E
temp.,
°C
wind,
m/s
gust,
m/s
humid.,
%
clouds,
%
prec.,
mm/h
press.,
hPa
HPBL,
m
17 may, mon
mon1700:00+14e348216 0.0 101254
03:00+13ene388495 0.0 1012144
06:00+14ene51492100 1.2 1010340
09:00+19e61183100 1.5 1008487
12:00+24ese7126016 0.0 1007958
15:00+25ese7136059 0.0 10061643
18:00+22se713665 0.0 10061018
21:00+18ese514796 0.0 1006396
18 may, tue
tue1800:00+17se5148689 0.0 1006331
03:00+15se4109455 0.1 1006197
06:00+15se3894100 0.1 1006191
09:00+20se597844 0.1 1006565
12:00+22sse576675 0.0 10061093
15:00+22sse5967100 0.3 10051298
18:00+18sse498499 1.8 1005284
21:00+15se399175 1.9 1006241
19 may, wed
wed1900:00+14se3995100 0.0 1006230
03:00+14se499696 1.6 1005312
06:00+14se3996100 0.0 1006316
09:00+17se4683100 0.0 1007651
12:00+20sse566869 0.3 10071339
15:00+20sse4665100 0.8 10071384
18:00+19sse257799 0.5 1006464
21:00+16se118585 0.9 100611
20 may, thu
thu2000:00+13se1293100 0.1 100511
03:00+13s2298100 0.5 100473
06:00+13ssw2397100 0.6 1004213
09:00+13sw3694100 1.4 1004397
12:00+16sse357421 0.1 1005894
15:00+18s796978 1.4 10051631
18:00+15ssw610835 1.1 10061062
21:00+12s41092100 1.1 1007311
21 may, fri
fri2100:00+13s61289100 0.0 1007543
03:00+12s51195100 0.3 1007651
06:00+12ssw61193100 2.6 1007883
09:00+12ssw8147928 2.7 10081249
12:00+11sw71279100 0.2 10111053
15:00+11wsw8128181 0.5 10131248
18:00+12wsw510729 0.1 10141288
21:00+9sw38861 0.1 1015146